Location: Palomar Mountain Lodge
(33.3110°N, 116.8495°W)
Time: 15:56:17
(UTC-07:00)

Skynet4D Del rocket - Visible Passes

Search period start: 13 March 2026 00:00
Search period end: 23 March 2026 00:00
Orbit: 763 x 1289 km, 26.9° (Epoch: 13 March)

Date Brightness Start Highest point End Pass type
(mag) Time Alt. Az. Time Alt. Az. Time Alt. Az.
13 Mar 5.4 04:21:39 21° SE 04:21:39 21° SE 04:24:09 10° ESE visible
13 Mar 4.3 06:07:14 13° WSW 06:11:40 41° S 06:16:40 10° ESE visible
14 Mar 4.4 04:59:59 37° S 05:00:18 37° S 05:05:13 10° ESE visible
15 Mar 6.0 03:52:42 15° ESE 03:52:42 15° ESE 03:53:44 10° ESE visible
15 Mar 4.2 05:38:17 25° SW 05:40:59 43° S 05:46:01 10° ESE visible
16 Mar 4.7 04:30:59 34° SE 04:30:59 34° SE 04:34:41 10° ESE visible
16 Mar 4.3 06:16:35 11° WSW 06:21:39 41° S 06:26:37 10° ESE visible
17 Mar 4.1 05:09:17 40° SSW 05:10:16 44° S 05:15:24 10° ESE visible
18 Mar 5.5 04:01:59 23° ESE 04:01:59 23° ESE 04:04:09 10° ESE visible
18 Mar 4.3 05:47:34 20° WSW 05:50:56 39° S 05:55:56 10° ESE visible
19 Mar 4.3 04:40:17 43° SSE 04:40:17 43° SSE 04:44:49 10° ESE visible
19 Mar 4.7 06:26:41 10° WSW 06:31:31 29° SSW 06:36:06 10° SE visible
20 Mar 6.2 03:33:01 13° ESE 03:33:01 13° ESE 03:33:37 10° ESE visible
20 Mar 4.4 05:18:36 32° SW 05:20:10 38° SSW 05:25:15 10° SE visible
21 Mar 5.2 04:11:23 28° SE 04:11:23 28° SE 04:14:13 10° ESE visible
21 Mar 4.8 05:56:59 15° WSW 06:00:43 27° SSW 06:05:16 10° SE visible
22 Mar 4.5 04:49:47 36° S 04:49:47 36° S 04:54:34 10° SE visible
